Time,TemperatureF,DewpointF,PressureIn,WindDirection,WindDirectionDegrees,WindSpeedMPH,WindSpeedGustMPH,Humidity,HourlyPrecipIn,Conditions,Clouds,dailyrainin,SoftwareType,DateUTC
2013-08-23 00:01:00,71.2,68.5,29.57,North,-999,-999.0,-999.0,89,-99.99,,,-99.99,Homeseer,2013-08-23 04:01:00,
2013-08-23 00:02:00,71.3,68.6,29.57,North,-999,-999.0,-999.0,89,-99.99,,,-99.99,Homeseer,2013-08-23 04:02:00,
2013-08-23 00:07:00,71.1,68.7,29.58,North,-999,-999.0,-999.0,90,-99.99,,,-99.99,Homeseer,2013-08-23 04:07:00,
2013-08-23 00:09:00,71.1,68.7,29.59,North,-999,-999.0,-999.0,90,-99.99,,,-99.99,Homeseer,2013-08-23 04:09:00,
2013-08-23 00:10:00,71.1,68.7,29.58,North,-999,-999.0,-999.0,90,-99.99,,,-99.99,Homeseer,2013-08-23 04:10:00,
2013-08-23 00:11:00,71.1,68.7,29.59,North,-999,-999.0,-999.0,90,-99.99,,,-99.99,Homeseer,2013-08-23 04:11:00,
2013-08-23 00:16:00,71.1,68.7,29.59,North,-999,-999.0,-999.0,90,-99.99,,,-99.99,Homeseer,2013-08-23 04:16:00,
2013-08-23 00:21:00,71.0,68.8,29.58,North,-999,-999.0,-999.0,91,-99.99,,,-99.99,Homeseer,2013-08-23 04:21:00,
2013-08-23 00:26:00,71.0,68.6,29.59,North,-999,-999.0,-999.0,90,-99.99,,,-99.99,Homeseer,2013-08-23 04:26:00,
2013-08-23 00:31:00,70.8,68.4,29.59,North,-999,-999.0,-999.0,90,-99.99,,,-99.99,Homeseer,2013-08-23 04:31:00,
2013-08-23 00:36:00,70.7,68.5,29.58,North,-999,-999.0,-999.0,91,-99.99,,,-99.99,Homeseer,2013-08-23 04:36:00,
2013-08-23 00:41:00,70.7,68.5,29.57,North,-999,-999.0,-999.0,91,-99.99,,,-99.99,Homeseer,2013-08-23 04:41:00,
2013-08-23 00:46:00,70.7,68.5,29.57,North,-999,-999.0,-999.0,91,-99.99,,,-99.99,Homeseer,2013-08-23 04:46:00,
2013-08-23 00:51:00,70.7,68.5,29.57,North,-999,-999.0,-999.0,91,-99.99,,,-99.99,Homeseer,2013-08-23 04:51:00,
2013-08-23 00:56:00,70.6,68.2,29.57,North,-999,-999.0,-999.0,90,-99.99,,,-99.99,Homeseer,2013-08-23 04:56:00,
2013-08-23 01:01:00,70.6,68.4,29.57,North,-999,-999.0,-999.0,91,-99.99,,,-99.99,Homeseer,2013-08-23 05:01:00,
2013-08-23 01:06:00,70.5,68.3,29.57,North,-999,-999.0,-999.0,91,-99.99,,,-99.99,Homeseer,2013-08-23 05:06:00,
2013-08-23 01:11:00,70.5,68.3,29.57,North,-999,-999.0,-999.0,91,-99.99,,,-99.99,Homeseer,2013-08-23 05:11:00,
2013-08-23 01:16:00,70.4,68.3,29.57,North,-999,-999.0,-999.0,91,-99.99,,,-99.99,Homeseer,2013-08-23 05:16:00,
2013-08-23 01:21:00,70.3,68.4,29.57,North,-999,-999.0,-999.0,92,-99.99,,,-99.99,Homeseer,2013-08-23 05:21:00,
2013-08-23 01:26:00,70.3,68.4,29.58,North,-999,-999.0,-999.0,92,-99.99,,,-99.99,Homeseer,2013-08-23 05:26:00,
2013-08-23 01:31:00,70.2,68.3,29.58,North,-999,-999.0,-999.0,92,-99.99,,,-99.99,Homeseer,2013-08-23 05:31:00,
2013-08-23 01:36:00,70.3,68.4,29.59,North,-999,-999.0,-999.0,92,-99.99,,,-99.99,Homeseer,2013-08-23 05:36:00,
2013-08-23 01:41:00,70.3,68.4,29.58,North,-999,-999.0,-999.0,92,-99.99,,,-99.99,Homeseer,2013-08-23 05:41:00,
2013-08-23 01:46:00,70.2,68.3,29.59,North,-999,-999.0,-999.0,92,-99.99,,,-99.99,Homeseer,2013-08-23 05:46:00,
2013-08-23 01:51:00,70.2,68.3,29.59,North,-999,-999.0,-999.0,92,-99.99,,,-99.99,Homeseer,2013-08-23 05:51:00,
2013-08-23 01:56:00,70.2,68.3,29.58,North,-999,-999.0,-999.0,92,-99.99,,,-99.99,Homeseer,2013-08-23 05:56:00,
2013-08-23 02:01:00,70.1,68.2,29.59,North,-999,-999.0,-999.0,92,-99.99,,,-99.99,Homeseer,2013-08-23 06:01:00,
2013-08-23 02:06:00,70.2,68.5,29.59,North,-999,-999.0,-999.0,93,-99.99,,,-99.99,Homeseer,2013-08-23 06:06:00,
2013-08-23 02:11:00,70.2,68.3,29.58,North,-999,-999.0,-999.0,92,-99.99,,,-99.99,Homeseer,2013-08-23 06:11:00,
2013-08-23 02:16:00,70.2,68.5,29.58,North,-999,-999.0,-999.0,93,-99.99,,,-99.99,Homeseer,2013-08-23 06:16:00,
2013-08-23 02:21:00,70.2,68.5,29.59,North,-999,-999.0,-999.0,93,-99.99,,,-99.99,Homeseer,2013-08-23 06:21:00,
2013-08-23 02:26:00,70.3,68.6,29.59,North,-999,-999.0,-999.0,93,-99.99,,,-99.99,Homeseer,2013-08-23 06:26:00,
2013-08-23 02:31:00,70.4,68.7,29.59,North,-999,-999.0,-999.0,93,-99.99,,,-99.99,Homeseer,2013-08-23 06:31:00,
2013-08-23 02:36:00,70.4,68.7,29.60,North,-999,-999.0,-999.0,93,-99.99,,,-99.99,Homeseer,2013-08-23 06:36:00,
2013-08-23 02:41:00,70.2,68.1,29.59,North,-999,-999.0,-999.0,91,-99.99,,,-99.99,Homeseer,2013-08-23 06:41:00,
2013-08-23 02:46:00,70.4,67.7,29.59,North,-999,-999.0,-999.0,89,-99.99,,,-99.99,Homeseer,2013-08-23 06:46:00,
2013-08-23 02:51:00,70.6,67.7,29.59,North,-999,-999.0,-999.0,88,-99.99,,,-99.99,Homeseer,2013-08-23 06:51:00,
2013-08-23 02:56:00,70.7,67.8,29.59,North,-999,-999.0,-999.0,88,-99.99,,,-99.99,Homeseer,2013-08-23 06:56:00,
2013-08-23 03:01:00,70.7,67.3,29.59,North,-999,-999.0,-999.0,86,-99.99,,,-99.99,Homeseer,2013-08-23 07:01:00,
2013-08-23 03:06:00,70.7,67.3,29.59,North,-999,-999.0,-999.0,86,-99.99,,,-99.99,Homeseer,2013-08-23 07:06:00,
2013-08-23 03:11:00,70.8,67.1,29.59,North,-999,-999.0,-999.0,85,-99.99,,,-99.99,Homeseer,2013-08-23 07:11:00,
2013-08-23 03:16:00,70.7,66.5,29.59,North,-999,-999.0,-999.0,83,-99.99,,,-99.99,Homeseer,2013-08-23 07:16:00,
2013-08-23 03:21:00,70.5,66.5,29.59,North,-999,-999.0,-999.0,84,-99.99,,,-99.99,Homeseer,2013-08-23 07:21:00,
2013-08-23 03:26:00,70.4,66.2,29.59,North,-999,-999.0,-999.0,83,-99.99,,,-99.99,Homeseer,2013-08-23 07:26:00,
2013-08-23 03:31:00,70.3,65.8,29.59,North,-999,-999.0,-999.0,82,-99.99,,,-99.99,Homeseer,2013-08-23 07:31:00,
2013-08-23 03:36:00,70.2,65.7,29.59,North,-999,-999.0,-999.0,82,-99.99,,,-99.99,Homeseer,2013-08-23 07:36:00,
2013-08-23 03:41:00,70.1,65.9,29.59,North,-999,-999.0,-999.0,83,-99.99,,,-99.99,Homeseer,2013-08-23 07:41:00,
2013-08-23 03:46:00,69.8,65.1,29.59,North,-999,-999.0,-999.0,81,-99.99,,,-99.99,Homeseer,2013-08-23 07:46:00,
2013-08-23 03:51:00,69.7,65.2,29.59,North,-999,-999.0,-999.0,82,-99.99,,,-99.99,Homeseer,2013-08-23 07:51:00,
2013-08-23 03:56:00,69.6,65.1,29.59,North,-999,-999.0,-999.0,82,-99.99,,,-99.99,Homeseer,2013-08-23 07:56:00,
2013-08-23 04:01:00,69.6,65.1,29.60,North,-999,-999.0,-999.0,82,-99.99,,,-99.99,Homeseer,2013-08-23 08:01:00,
2013-08-23 04:06:00,69.5,65.3,29.60,North,-999,-999.0,-999.0,83,-99.99,,,-99.99,Homeseer,2013-08-23 08:06:00,
2013-08-23 04:11:00,69.3,65.1,29.60,North,-999,-999.0,-999.0,83,-99.99,,,-99.99,Homeseer,2013-08-23 08:11:00,
2013-08-23 04:16:00,69.2,65.0,29.61,North,-999,-999.0,-999.0,83,-99.99,,,-99.99,Homeseer,2013-08-23 08:16:00,
2013-08-23 04:21:00,68.9,64.7,29.61,North,-999,-999.0,-999.0,83,-99.99,,,-99.99,Homeseer,2013-08-23 08:21:00,
2013-08-23 04:26:00,68.6,64.2,29.61,North,-999,-999.0,-999.0,82,-99.99,,,-99.99,Homeseer,2013-08-23 08:26:00,
2013-08-23 04:31:00,68.7,64.5,29.61,North,-999,-999.0,-999.0,83,-99.99,,,-99.99,Homeseer,2013-08-23 08:31:00,
2013-08-23 04:36:00,68.7,64.5,29.61,North,-999,-999.0,-999.0,83,-99.99,,,-99.99,Homeseer,2013-08-23 08:36:00,
2013-08-23 04:41:00,68.5,64.3,29.61,North,-999,-999.0,-999.0,83,-99.99,,,-99.99,Homeseer,2013-08-23 08:41:00,
2013-08-23 04:46:00,68.4,64.2,29.61,North,-999,-999.0,-999.0,83,-99.99,,,-99.99,Homeseer,2013-08-23 08:46:00,
2013-08-23 04:51:00,68.2,64.3,29.62,North,-999,-999.0,-999.0,84,-99.99,,,-99.99,Homeseer,2013-08-23 08:51:00,
2013-08-23 04:56:00,68.0,64.1,29.62,North,-999,-999.0,-999.0,84,-99.99,,,-99.99,Homeseer,2013-08-23 08:56:00,
2013-08-23 05:01:00,67.8,63.9,29.63,North,-999,-999.0,-999.0,84,-99.99,,,-99.99,Homeseer,2013-08-23 09:01:00,
2013-08-23 05:06:00,67.7,64.1,29.63,North,-999,-999.0,-999.0,85,-99.99,,,-99.99,Homeseer,2013-08-23 09:06:00,
2013-08-23 05:11:00,67.6,63.7,29.63,North,-999,-999.0,-999.0,84,-99.99,,,-99.99,Homeseer,2013-08-23 09:11:00,
2013-08-23 05:16:00,67.6,64.0,29.63,North,-999,-999.0,-999.0,85,-99.99,,,-99.99,Homeseer,2013-08-23 09:16:00,
2013-08-23 05:21:00,67.5,63.6,29.63,North,-999,-999.0,-999.0,84,-99.99,,,-99.99,Homeseer,2013-08-23 09:21:00,
2013-08-23 05:26:00,67.4,63.5,29.64,North,-999,-999.0,-999.0,84,-99.99,,,-99.99,Homeseer,2013-08-23 09:26:00,
2013-08-23 05:31:00,67.4,63.5,29.64,North,-999,-999.0,-999.0,84,-99.99,,,-99.99,Homeseer,2013-08-23 09:31:00,
2013-08-23 05:36:00,67.2,63.3,29.64,North,-999,-999.0,-999.0,84,-99.99,,,-99.99,Homeseer,2013-08-23 09:36:00,
2013-08-23 05:41:00,67.4,63.5,29.64,North,-999,-999.0,-999.0,84,-99.99,,,-99.99,Homeseer,2013-08-23 09:41:00,
2013-08-23 05:46:00,67.4,63.3,29.64,North,-999,-999.0,-999.0,83,-99.99,,,-99.99,Homeseer,2013-08-23 09:46:00,
2013-08-23 05:51:00,67.5,63.4,29.65,North,-999,-999.0,-999.0,83,-99.99,,,-99.99,Homeseer,2013-08-23 09:51:00,
2013-08-23 05:56:00,67.4,63.0,29.64,North,-999,-999.0,-999.0,82,-99.99,,,-99.99,Homeseer,2013-08-23 09:56:00,
2013-08-23 06:01:00,67.4,63.3,29.64,North,-999,-999.0,-999.0,83,-99.99,,,-99.99,Homeseer,2013-08-23 10:01:00,
2013-08-23 06:06:00,67.2,63.1,29.65,North,-999,-999.0,-999.0,83,-99.99,,,-99.99,Homeseer,2013-08-23 10:06:00,
2013-08-23 06:11:00,67.4,63.0,29.66,North,-999,-999.0,-999.0,82,-99.99,,,-99.99,Homeseer,2013-08-23 10:11:00,
2013-08-23 06:16:00,67.4,63.3,29.66,North,-999,-999.0,-999.0,83,-99.99,,,-99.99,Homeseer,2013-08-23 10:16:00,
2013-08-23 06:21:00,67.2,62.8,29.67,North,-999,-999.0,-999.0,82,-99.99,,,-99.99,Homeseer,2013-08-23 10:21:00,
2013-08-23 06:26:00,67.2,63.1,29.67,North,-999,-999.0,-999.0,83,-99.99,,,-99.99,Homeseer,2013-08-23 10:26:00,
2013-08-23 06:31:00,67.1,63.0,29.67,North,-999,-999.0,-999.0,83,-99.99,,,-99.99,Homeseer,2013-08-23 10:31:00,
2013-08-23 06:36:00,67.1,63.0,29.67,North,-999,-999.0,-999.0,83,-99.99,,,-99.99,Homeseer,2013-08-23 10:36:00,
2013-08-23 06:41:00,67.0,62.6,29.68,North,-999,-999.0,-999.0,82,-99.99,,,-99.99,Homeseer,2013-08-23 10:41:00,
2013-08-23 06:46:00,67.1,63.0,29.68,North,-999,-999.0,-999.0,83,-99.99,,,-99.99,Homeseer,2013-08-23 10:46:00,
2013-08-23 06:51:00,67.0,62.6,29.68,North,-999,-999.0,-999.0,82,-99.99,,,-99.99,Homeseer,2013-08-23 10:51:00,
2013-08-23 06:56:00,67.1,63.0,29.68,North,-999,-999.0,-999.0,83,-99.99,,,-99.99,Homeseer,2013-08-23 10:56:00,
2013-08-23 07:01:00,67.1,63.0,29.69,North,-999,-999.0,-999.0,83,-99.99,,,-99.99,Homeseer,2013-08-23 11:01:00,
2013-08-23 07:06:00,67.1,63.0,29.69,North,-999,-999.0,-999.0,83,-99.99,,,-99.99,Homeseer,2013-08-23 11:06:00,
2013-08-23 07:11:00,67.1,63.0,29.69,North,-999,-999.0,-999.0,83,-99.99,,,-99.99,Homeseer,2013-08-23 11:11:00,
2013-08-23 07:16:00,67.1,63.0,29.70,North,-999,-999.0,-999.0,83,-99.99,,,-99.99,Homeseer,2013-08-23 11:16:00,
2013-08-23 07:21:00,67.2,63.1,29.70,North,-999,-999.0,-999.0,83,-99.99,,,-99.99,Homeseer,2013-08-23 11:21:00,
2013-08-23 07:26:00,67.1,63.0,29.70,North,-999,-999.0,-999.0,83,-99.99,,,-99.99,Homeseer,2013-08-23 11:26:00,
2013-08-23 07:31:00,67.2,63.1,29.70,North,-999,-999.0,-999.0,83,-99.99,,,-99.99,Homeseer,2013-08-23 11:31:00,
2013-08-23 07:36:00,67.4,63.3,29.70,North,-999,-999.0,-999.0,83,-99.99,,,-99.99,Homeseer,2013-08-23 11:36:00,
2013-08-23 07:41:00,67.5,63.4,29.71,North,-999,-999.0,-999.0,83,-99.99,,,-99.99,Homeseer,2013-08-23 11:41:00,
2013-08-23 07:46:00,67.1,62.7,29.71,North,-999,-999.0,-999.0,82,-99.99,,,-99.99,Homeseer,2013-08-23 11:46:00,
2013-08-23 07:51:00,67.2,62.3,29.72,North,-999,-999.0,-999.0,80,-99.99,,,-99.99,Homeseer,2013-08-23 11:51:00,
2013-08-23 07:56:00,67.5,63.1,29.73,North,-999,-999.0,-999.0,82,-99.99,,,-99.99,Homeseer,2013-08-23 11:56:00,
2013-08-23 08:01:00,67.6,63.2,29.73,North,-999,-999.0,-999.0,82,-99.99,,,-99.99,Homeseer,2013-08-23 12:01:00,
2013-08-23 08:06:00,67.6,62.9,29.73,North,-999,-999.0,-999.0,81,-99.99,,,-99.99,Homeseer,2013-08-23 12:06:00,
2013-08-23 08:11:00,67.8,63.1,29.73,North,-999,-999.0,-999.0,81,-99.99,,,-99.99,Homeseer,2013-08-23 12:11:00,
2013-08-23 08:16:00,67.9,63.5,29.73,North,-999,-999.0,-999.0,82,-99.99,,,-99.99,Homeseer,2013-08-23 12:16:00,
2013-08-23 08:21:00,67.9,63.5,29.73,North,-999,-999.0,-999.0,82,-99.99,,,-99.99,Homeseer,2013-08-23 12:21:00,
2013-08-23 08:26:00,68.0,63.6,29.73,North,-999,-999.0,-999.0,82,-99.99,,,-99.99,Homeseer,2013-08-23 12:26:00,
2013-08-23 08:31:00,68.2,63.5,29.74,North,-999,-999.0,-999.0,81,-99.99,,,-99.99,Homeseer,2013-08-23 12:31:00,
2013-08-23 08:36:00,68.4,63.7,29.73,North,-999,-999.0,-999.0,81,-99.99,,,-99.99,Homeseer,2013-08-23 12:36:00,
2013-08-23 08:41:00,68.5,63.5,29.74,North,-999,-999.0,-999.0,80,-99.99,,,-99.99,Homeseer,2013-08-23 12:41:00,
2013-08-23 08:46:00,68.6,64.2,29.74,North,-999,-999.0,-999.0,82,-99.99,,,-99.99,Homeseer,2013-08-23 12:46:00,
2013-08-23 08:51:00,68.8,63.3,29.74,North,-999,-999.0,-999.0,78,-99.99,,,-99.99,Homeseer,2013-08-23 12:51:00,
2013-08-23 08:56:00,68.9,63.6,29.74,North,-999,-999.0,-999.0,79,-99.99,,,-99.99,Homeseer,2013-08-23 12:56:00,
2013-08-23 09:01:00,69.0,63.5,29.74,North,-999,-999.0,-999.0,78,-99.99,,,-99.99,Homeseer,2013-08-23 13:01:00,
2013-08-23 09:06:00,69.2,63.6,29.74,North,-999,-999.0,-999.0,78,-99.99,,,-99.99,Homeseer,2013-08-23 13:06:00,
2013-08-23 09:11:00,69.6,64.0,29.75,North,-999,-999.0,-999.0,78,-99.99,,,-99.99,Homeseer,2013-08-23 13:11:00,
2013-08-23 09:16:00,70.0,64.1,29.74,North,-999,-999.0,-999.0,77,-99.99,,,-99.99,Homeseer,2013-08-23 13:16:00,
2013-08-23 09:21:00,70.2,64.6,29.75,North,-999,-999.0,-999.0,78,-99.99,,,-99.99,Homeseer,2013-08-23 13:21:00,
2013-08-23 09:26:00,70.3,64.7,29.74,North,-999,-999.0,-999.0,78,-99.99,,,-99.99,Homeseer,2013-08-23 13:26:00,
2013-08-23 09:31:00,70.5,63.7,29.75,North,-999,-999.0,-999.0,74,-99.99,,,-99.99,Homeseer,2013-08-23 13:31:00,
2013-08-23 09:36:00,70.5,64.0,29.75,North,-999,-999.0,-999.0,75,-99.99,,,-99.99,Homeseer,2013-08-23 13:36:00,
2013-08-23 09:41:00,70.6,63.8,29.75,North,-999,-999.0,-999.0,74,-99.99,,,-99.99,Homeseer,2013-08-23 13:41:00,
2013-08-23 09:46:00,70.6,63.5,29.75,North,-999,-999.0,-999.0,73,-99.99,,,-99.99,Homeseer,2013-08-23 13:46:00,
2013-08-23 09:51:00,71.0,63.6,29.76,North,-999,-999.0,-999.0,72,-99.99,,,-99.99,Homeseer,2013-08-23 13:51:00,
2013-08-23 09:56:00,71.2,64.4,29.76,North,-999,-999.0,-999.0,74,-99.99,,,-99.99,Homeseer,2013-08-23 13:56:00,
2013-08-23 10:01:00,71.6,64.5,29.76,North,-999,-999.0,-999.0,73,-99.99,,,-99.99,Homeseer,2013-08-23 14:01:00,
2013-08-23 10:06:00,71.9,65.1,29.77,North,-999,-999.0,-999.0,74,-99.99,,,-99.99,Homeseer,2013-08-23 14:06:00,
2013-08-23 10:11:00,72.1,64.7,29.77,North,-999,-999.0,-999.0,72,-99.99,,,-99.99,Homeseer,2013-08-23 14:11:00,
2013-08-23 10:16:00,72.0,64.3,29.77,North,-999,-999.0,-999.0,71,-99.99,,,-99.99,Homeseer,2013-08-23 14:16:00,
2013-08-23 10:21:00,72.1,64.0,29.77,North,-999,-999.0,-999.0,70,-99.99,,,-99.99,Homeseer,2013-08-23 14:21:00,
2013-08-23 10:26:00,72.1,63.7,29.77,North,-999,-999.0,-999.0,69,-99.99,,,-99.99,Homeseer,2013-08-23 14:26:00,
2013-08-23 10:31:00,72.1,63.1,29.77,North,-999,-999.0,-999.0,67,-99.99,,,-99.99,Homeseer,2013-08-23 14:31:00,
2013-08-23 10:36:00,72.3,63.6,29.77,North,-999,-999.0,-999.0,68,-99.99,,,-99.99,Homeseer,2013-08-23 14:36:00,
2013-08-23 10:41:00,72.3,63.6,29.77,North,-999,-999.0,-999.0,68,-99.99,,,-99.99,Homeseer,2013-08-23 14:41:00,
2013-08-23 10:46:00,72.9,63.8,29.78,North,-999,-999.0,-999.0,67,-99.99,,,-99.99,Homeseer,2013-08-23 14:46:00,
2013-08-23 10:51:00,73.1,63.0,29.78,North,-999,-999.0,-999.0,64,-99.99,,,-99.99,Homeseer,2013-08-23 14:51:00,
2013-08-23 10:56:00,72.9,63.5,29.78,North,-999,-999.0,-999.0,66,-99.99,,,-99.99,Homeseer,2013-08-23 14:56:00,
2013-08-23 11:01:00,73.3,63.9,29.78,North,-999,-999.0,-999.0,66,-99.99,,,-99.99,Homeseer,2013-08-23 15:01:00,
2013-08-23 11:06:00,73.7,61.8,29.78,North,-999,-999.0,-999.0,59,-99.99,,,-99.99,Homeseer,2013-08-23 15:06:00,
2013-08-23 11:11:00,74.6,63.0,29.78,North,-999,-999.0,-999.0,60,-99.99,,,-99.99,Homeseer,2013-08-23 15:11:00,
2013-08-23 11:16:00,75.4,62.6,29.77,North,-999,-999.0,-999.0,57,-99.99,,,-99.99,Homeseer,2013-08-23 15:16:00,
2013-08-23 11:21:00,75.5,63.1,29.78,North,-999,-999.0,-999.0,58,-99.99,,,-99.99,Homeseer,2013-08-23 15:21:00,
2013-08-23 11:26:00,76.2,64.9,29.78,North,-999,-999.0,-999.0,61,-99.99,,,-99.99,Homeseer,2013-08-23 15:26:00,
2013-08-23 11:31:00,77.6,65.0,29.77,North,-999,-999.0,-999.0,58,-99.99,,,-99.99,Homeseer,2013-08-23 15:31:00,
2013-08-23 11:36:00,78.0,63.8,29.77,North,-999,-999.0,-999.0,54,-99.99,,,-99.99,Homeseer,2013-08-23 15:36:00,
2013-08-23 11:41:00,77.6,63.0,29.76,North,-999,-999.0,-999.0,53,-99.99,,,-99.99,Homeseer,2013-08-23 15:41:00,
2013-08-23 11:46:00,77.7,61.9,29.77,North,-999,-999.0,-999.0,50,-99.99,,,-99.99,Homeseer,2013-08-23 15:46:00,
2013-08-23 11:51:00,78.5,62.2,29.77,North,-999,-999.0,-999.0,49,-99.99,,,-99.99,Homeseer,2013-08-23 15:51:00,
2013-08-23 11:56:00,79.1,62.2,29.77,North,-999,-999.0,-999.0,48,-99.99,,,-99.99,Homeseer,2013-08-23 15:56:00,
2013-08-23 12:01:00,79.7,63.2,29.77,North,-999,-999.0,-999.0,49,-99.99,,,-99.99,Homeseer,2013-08-23 16:01:00,
2013-08-23 12:06:00,80.0,61.6,29.77,North,-999,-999.0,-999.0,45,-99.99,,,-99.99,Homeseer,2013-08-23 16:06:00,
2013-08-23 12:11:00,79.8,62.4,29.77,North,-999,-999.0,-999.0,47,-99.99,,,-99.99,Homeseer,2013-08-23 16:11:00,
2013-08-23 12:16:00,80.3,62.9,29.77,North,-999,-999.0,-999.0,47,-99.99,,,-99.99,Homeseer,2013-08-23 16:16:00,
2013-08-23 12:21:00,81.0,62.0,29.77,North,-999,-999.0,-999.0,44,-99.99,,,-99.99,Homeseer,2013-08-23 16:21:00,
2013-08-23 12:26:00,80.5,59.0,29.76,North,-999,-999.0,-999.0,39,-99.99,,,-99.99,Homeseer,2013-08-23 16:26:00,
2013-08-23 12:31:00,80.6,61.2,29.76,North,-999,-999.0,-999.0,43,-99.99,,,-99.99,Homeseer,2013-08-23 16:31:00,
2013-08-23 12:36:00,80.5,61.1,29.76,North,-999,-999.0,-999.0,43,-99.99,,,-99.99,Homeseer,2013-08-23 16:36:00,
2013-08-23 12:41:00,80.8,60.3,29.76,North,-999,-999.0,-999.0,41,-99.99,,,-99.99,Homeseer,2013-08-23 16:41:00,
2013-08-23 12:46:00,81.2,60.7,29.77,North,-999,-999.0,-999.0,41,-99.99,,,-99.99,Homeseer,2013-08-23 16:46:00,
2013-08-23 12:51:00,81.4,60.9,29.76,North,-999,-999.0,-999.0,41,-99.99,,,-99.99,Homeseer,2013-08-23 16:51:00,
2013-08-23 12:56:00,81.4,61.4,29.76,North,-999,-999.0,-999.0,42,-99.99,,,-99.99,Homeseer,2013-08-23 16:56:00,
2013-08-23 13:01:00,81.6,65.4,29.76,North,-999,-999.0,-999.0,50,-99.99,,,-99.99,Homeseer,2013-08-23 17:01:00,
2013-08-23 13:06:00,81.6,59.4,29.76,North,-999,-999.0,-999.0,38,-99.99,,,-99.99,Homeseer,2013-08-23 17:06:00,
2013-08-23 13:11:00,81.4,61.4,29.76,North,-999,-999.0,-999.0,42,-99.99,,,-99.99,Homeseer,2013-08-23 17:11:00,
2013-08-23 13:16:00,81.1,61.1,29.76,North,-999,-999.0,-999.0,42,-99.99,,,-99.99,Homeseer,2013-08-23 17:16:00,
2013-08-23 13:21:00,81.0,62.5,29.76,North,-999,-999.0,-999.0,45,-99.99,,,-99.99,Homeseer,2013-08-23 17:21:00,
2013-08-23 13:26:00,81.0,61.0,29.76,North,-999,-999.0,-999.0,42,-99.99,,,-99.99,Homeseer,2013-08-23 17:26:00,
2013-08-23 13:31:00,80.4,61.0,29.76,North,-999,-999.0,-999.0,43,-99.99,,,-99.99,Homeseer,2013-08-23 17:31:00,
2013-08-23 13:36:00,80.3,59.9,29.77,North,-999,-999.0,-999.0,41,-99.99,,,-99.99,Homeseer,2013-08-23 17:36:00,
2013-08-23 13:41:00,79.2,59.5,29.77,North,-999,-999.0,-999.0,42,-99.99,,,-99.99,Homeseer,2013-08-23 17:41:00,
2013-08-23 13:46:00,79.0,60.8,29.77,North,-999,-999.0,-999.0,45,-99.99,,,-99.99,Homeseer,2013-08-23 17:46:00,
2013-08-23 13:51:00,79.3,60.0,29.77,North,-999,-999.0,-999.0,43,-99.99,,,-99.99,Homeseer,2013-08-23 17:51:00,
2013-08-23 13:56:00,79.5,59.7,29.76,North,-999,-999.0,-999.0,42,-99.99,,,-99.99,Homeseer,2013-08-23 17:56:00,
2013-08-23 14:01:00,79.3,61.5,29.77,North,-999,-999.0,-999.0,46,-99.99,,,-99.99,Homeseer,2013-08-23 18:01:00,
2013-08-23 14:06:00,78.8,61.1,29.77,North,-999,-999.0,-999.0,46,-99.99,,,-99.99,Homeseer,2013-08-23 18:06:00,
2013-08-23 14:11:00,79.2,59.5,29.77,North,-999,-999.0,-999.0,42,-99.99,,,-99.99,Homeseer,2013-08-23 18:11:00,
2013-08-23 14:16:00,78.5,59.8,29.78,North,-999,-999.0,-999.0,44,-99.99,,,-99.99,Homeseer,2013-08-23 18:16:00,
2013-08-23 14:21:00,78.6,60.4,29.78,North,-999,-999.0,-999.0,45,-99.99,,,-99.99,Homeseer,2013-08-23 18:21:00,
2013-08-23 14:26:00,78.6,59.4,29.78,North,-999,-999.0,-999.0,43,-99.99,,,-99.99,Homeseer,2013-08-23 18:26:00,
2013-08-23 14:31:00,79.1,60.4,29.78,North,-999,-999.0,-999.0,44,-99.99,,,-99.99,Homeseer,2013-08-23 18:31:00,
2013-08-23 14:36:00,79.5,60.2,29.78,North,-999,-999.0,-999.0,43,-99.99,,,-99.99,Homeseer,2013-08-23 18:36:00,
2013-08-23 14:41:00,79.3,59.0,29.78,North,-999,-999.0,-999.0,41,-99.99,,,-99.99,Homeseer,2013-08-23 18:41:00,
2013-08-23 14:46:00,80.1,61.7,29.78,North,-999,-999.0,-999.0,45,-99.99,,,-99.99,Homeseer,2013-08-23 18:46:00,
2013-08-23 14:51:00,80.5,61.1,29.79,North,-999,-999.0,-999.0,43,-99.99,,,-99.99,Homeseer,2013-08-23 18:51:00,
2013-08-23 14:56:00,80.9,60.4,29.79,North,-999,-999.0,-999.0,41,-99.99,,,-99.99,Homeseer,2013-08-23 18:56:00,
2013-08-23 15:01:00,81.1,60.6,29.79,North,-999,-999.0,-999.0,41,-99.99,,,-99.99,Homeseer,2013-08-23 19:01:00,
2013-08-23 15:06:00,81.2,60.7,29.80,North,-999,-999.0,-999.0,41,-99.99,,,-99.99,Homeseer,2013-08-23 19:06:00,
2013-08-23 15:11:00,81.5,60.4,29.79,North,-999,-999.0,-999.0,40,-99.99,,,-99.99,Homeseer,2013-08-23 19:11:00,
2013-08-23 15:16:00,81.4,60.9,29.79,North,-999,-999.0,-999.0,41,-99.99,,,-99.99,Homeseer,2013-08-23 19:16:00,
2013-08-23 15:21:00,81.5,59.9,29.79,North,-999,-999.0,-999.0,39,-99.99,,,-99.99,Homeseer,2013-08-23 19:21:00,
2013-08-23 15:26:00,81.4,59.8,29.79,North,-999,-999.0,-999.0,39,-99.99,,,-99.99,Homeseer,2013-08-23 19:26:00,
2013-08-23 15:31:00,81.2,61.2,29.79,North,-999,-999.0,-999.0,42,-99.99,,,-99.99,Homeseer,2013-08-23 19:31:00,
2013-08-23 15:36:00,80.5,61.1,29.79,North,-999,-999.0,-999.0,43,-99.99,,,-99.99,Homeseer,2013-08-23 19:36:00,
2013-08-23 15:41:00,79.5,59.7,29.79,North,-999,-999.0,-999.0,42,-99.99,,,-99.99,Homeseer,2013-08-23 19:41:00,
2013-08-23 15:46:00,79.3,60.5,29.79,North,-999,-999.0,-999.0,44,-99.99,,,-99.99,Homeseer,2013-08-23 19:46:00,
2013-08-23 15:51:00,78.8,60.1,29.80,North,-999,-999.0,-999.0,44,-99.99,,,-99.99,Homeseer,2013-08-23 19:51:00,
2013-08-23 15:56:00,78.5,60.3,29.80,North,-999,-999.0,-999.0,45,-99.99,,,-99.99,Homeseer,2013-08-23 19:56:00,
2013-08-23 16:01:00,78.3,59.6,29.80,North,-999,-999.0,-999.0,44,-99.99,,,-99.99,Homeseer,2013-08-23 20:01:00,
2013-08-23 16:06:00,77.5,60.4,29.80,North,-999,-999.0,-999.0,47,-99.99,,,-99.99,Homeseer,2013-08-23 20:06:00,
2013-08-23 16:11:00,77.2,59.6,29.80,North,-999,-999.0,-999.0,46,-99.99,,,-99.99,Homeseer,2013-08-23 20:11:00,
2013-08-23 16:16:00,77.0,59.4,29.80,North,-999,-999.0,-999.0,46,-99.99,,,-99.99,Homeseer,2013-08-23 20:16:00,
2013-08-23 16:21:00,76.8,58.8,29.80,North,-999,-999.0,-999.0,45,-99.99,,,-99.99,Homeseer,2013-08-23 20:21:00,
2013-08-23 16:26:00,76.9,59.4,29.80,North,-999,-999.0,-999.0,46,-99.99,,,-99.99,Homeseer,2013-08-23 20:26:00,
2013-08-23 16:31:00,77.0,59.4,29.80,North,-999,-999.0,-999.0,46,-99.99,,,-99.99,Homeseer,2013-08-23 20:31:00,
2013-08-23 16:36:00,77.4,59.8,29.80,North,-999,-999.0,-999.0,46,-99.99,,,-99.99,Homeseer,2013-08-23 20:36:00,
2013-08-23 16:41:00,77.7,60.1,29.80,North,-999,-999.0,-999.0,46,-99.99,,,-99.99,Homeseer,2013-08-23 20:41:00,
2013-08-23 16:46:00,77.8,59.7,29.81,North,-999,-999.0,-999.0,45,-99.99,,,-99.99,Homeseer,2013-08-23 20:46:00,
2013-08-23 16:51:00,77.7,58.6,29.81,North,-999,-999.0,-999.0,43,-99.99,,,-99.99,Homeseer,2013-08-23 20:51:00,
2013-08-23 16:56:00,77.4,58.9,29.81,North,-999,-999.0,-999.0,44,-99.99,,,-99.99,Homeseer,2013-08-23 20:56:00,
2013-08-23 17:01:00,77.0,58.0,29.82,North,-999,-999.0,-999.0,43,-99.99,,,-99.99,Homeseer,2013-08-23 21:01:00,
2013-08-23 17:06:00,77.0,58.5,29.81,North,-999,-999.0,-999.0,44,-99.99,,,-99.99,Homeseer,2013-08-23 21:06:00,
2013-08-23 17:11:00,76.8,59.7,29.82,North,-999,-999.0,-999.0,47,-99.99,,,-99.99,Homeseer,2013-08-23 21:11:00,
2013-08-23 17:16:00,76.1,59.1,29.82,North,-999,-999.0,-999.0,47,-99.99,,,-99.99,Homeseer,2013-08-23 21:16:00,
2013-08-23 17:21:00,76.5,58.5,29.82,North,-999,-999.0,-999.0,45,-99.99,,,-99.99,Homeseer,2013-08-23 21:21:00,
2013-08-23 17:26:00,76.4,59.4,29.82,North,-999,-999.0,-999.0,47,-99.99,,,-99.99,Homeseer,2013-08-23 21:26:00,
2013-08-23 17:31:00,75.8,57.9,29.83,North,-999,-999.0,-999.0,45,-99.99,,,-99.99,Homeseer,2013-08-23 21:31:00,
2013-08-23 17:36:00,75.6,58.2,29.83,North,-999,-999.0,-999.0,46,-99.99,,,-99.99,Homeseer,2013-08-23 21:36:00,
2013-08-23 17:41:00,75.1,57.3,29.83,North,-999,-999.0,-999.0,45,-99.99,,,-99.99,Homeseer,2013-08-23 21:41:00,
2013-08-23 17:46:00,74.9,57.1,29.83,North,-999,-999.0,-999.0,45,-99.99,,,-99.99,Homeseer,2013-08-23 21:46:00,
2013-08-23 17:51:00,74.6,57.3,29.83,North,-999,-999.0,-999.0,46,-99.99,,,-99.99,Homeseer,2013-08-23 21:51:00,
2013-08-23 17:56:00,74.4,57.1,29.83,North,-999,-999.0,-999.0,46,-99.99,,,-99.99,Homeseer,2013-08-23 21:56:00,
2013-08-23 18:01:00,74.3,57.5,29.83,North,-999,-999.0,-999.0,47,-99.99,,,-99.99,Homeseer,2013-08-23 22:01:00,
2013-08-23 18:06:00,74.4,56.7,29.83,North,-999,-999.0,-999.0,45,-99.99,,,-99.99,Homeseer,2013-08-23 22:06:00,
2013-08-23 18:11:00,74.3,57.0,29.84,North,-999,-999.0,-999.0,46,-99.99,,,-99.99,Homeseer,2013-08-23 22:11:00,
2013-08-23 18:16:00,74.1,56.4,29.84,North,-999,-999.0,-999.0,45,-99.99,,,-99.99,Homeseer,2013-08-23 22:16:00,
2013-08-23 18:21:00,74.0,56.3,29.84,North,-999,-999.0,-999.0,45,-99.99,,,-99.99,Homeseer,2013-08-23 22:21:00,
2013-08-23 18:26:00,73.9,56.2,29.84,North,-999,-999.0,-999.0,45,-99.99,,,-99.99,Homeseer,2013-08-23 22:26:00,
2013-08-23 18:31:00,73.6,57.3,29.85,North,-999,-999.0,-999.0,48,-99.99,,,-99.99,Homeseer,2013-08-23 22:31:00,
2013-08-23 18:36:00,73.4,56.7,29.85,North,-999,-999.0,-999.0,47,-99.99,,,-99.99,Homeseer,2013-08-23 22:36:00,
2013-08-23 18:41:00,73.2,57.4,29.85,North,-999,-999.0,-999.0,49,-99.99,,,-99.99,Homeseer,2013-08-23 22:41:00,
2013-08-23 18:46:00,72.9,57.5,29.85,North,-999,-999.0,-999.0,50,-99.99,,,-99.99,Homeseer,2013-08-23 22:46:00,
2013-08-23 18:51:00,72.3,56.6,29.85,North,-999,-999.0,-999.0,49,-99.99,,,-99.99,Homeseer,2013-08-23 22:51:00,
2013-08-23 18:56:00,72.3,57.0,29.86,North,-999,-999.0,-999.0,50,-99.99,,,-99.99,Homeseer,2013-08-23 22:56:00,
2013-08-23 19:01:00,72.0,57.1,29.86,North,-999,-999.0,-999.0,51,-99.99,,,-99.99,Homeseer,2013-08-23 23:01:00,
2013-08-23 19:06:00,71.8,57.4,29.87,North,-999,-999.0,-999.0,52,-99.99,,,-99.99,Homeseer,2013-08-23 23:06:00,
2013-08-23 19:11:00,71.5,57.9,29.87,North,-999,-999.0,-999.0,54,-99.99,,,-99.99,Homeseer,2013-08-23 23:11:00,
2013-08-23 19:16:00,71.3,57.7,29.87,North,-999,-999.0,-999.0,54,-99.99,,,-99.99,Homeseer,2013-08-23 23:16:00,
2013-08-23 19:21:00,71.0,58.2,29.88,North,-999,-999.0,-999.0,56,-99.99,,,-99.99,Homeseer,2013-08-23 23:21:00,
2013-08-23 19:26:00,70.5,57.7,29.88,North,-999,-999.0,-999.0,56,-99.99,,,-99.99,Homeseer,2013-08-23 23:26:00,
2013-08-23 19:31:00,70.1,56.6,29.87,North,-999,-999.0,-999.0,54,-99.99,,,-99.99,Homeseer,2013-08-23 23:31:00,
2013-08-23 19:36:00,69.6,56.9,29.87,North,-999,-999.0,-999.0,56,-99.99,,,-99.99,Homeseer,2013-08-23 23:36:00,
2013-08-23 19:41:00,69.4,56.3,29.88,North,-999,-999.0,-999.0,55,-99.99,,,-99.99,Homeseer,2013-08-23 23:41:00,
2013-08-23 19:46:00,68.9,55.9,29.88,North,-999,-999.0,-999.0,55,-99.99,,,-99.99,Homeseer,2013-08-23 23:46:00,
2013-08-23 19:51:00,68.6,56.0,29.89,North,-999,-999.0,-999.0,56,-99.99,,,-99.99,Homeseer,2013-08-23 23:51:00,
2013-08-23 19:56:00,68.0,56.5,29.89,North,-999,-999.0,-999.0,59,-99.99,,,-99.99,Homeseer,2013-08-23 23:56:00,
2013-08-23 20:01:00,67.7,56.2,29.89,North,-999,-999.0,-999.0,59,-99.99,,,-99.99,Homeseer,2013-08-24 00:01:00,
2013-08-23 20:06:00,67.4,56.7,29.90,North,-999,-999.0,-999.0,61,-99.99,,,-99.99,Homeseer,2013-08-24 00:06:00,
2013-08-23 20:11:00,67.5,56.8,29.91,North,-999,-999.0,-999.0,61,-99.99,,,-99.99,Homeseer,2013-08-24 00:11:00,
2013-08-23 20:16:00,67.4,57.0,29.91,North,-999,-999.0,-999.0,62,-99.99,,,-99.99,Homeseer,2013-08-24 00:16:00,
2013-08-23 20:21:00,67.2,56.5,29.91,North,-999,-999.0,-999.0,61,-99.99,,,-99.99,Homeseer,2013-08-24 00:21:00,
2013-08-23 20:26:00,67.2,56.1,29.92,North,-999,-999.0,-999.0,60,-99.99,,,-99.99,Homeseer,2013-08-24 00:26:00,
2013-08-23 20:31:00,67.1,56.0,29.92,North,-999,-999.0,-999.0,60,-99.99,,,-99.99,Homeseer,2013-08-24 00:31:00,
2013-08-23 20:36:00,67.1,55.3,29.93,North,-999,-999.0,-999.0,58,-99.99,,,-99.99,Homeseer,2013-08-24 00:36:00,
2013-08-23 20:41:00,67.1,55.7,29.93,North,-999,-999.0,-999.0,59,-99.99,,,-99.99,Homeseer,2013-08-24 00:41:00,
2013-08-23 20:46:00,67.0,55.6,29.93,North,-999,-999.0,-999.0,59,-99.99,,,-99.99,Homeseer,2013-08-24 00:46:00,
2013-08-23 20:51:00,66.9,55.5,29.93,North,-999,-999.0,-999.0,59,-99.99,,,-99.99,Homeseer,2013-08-24 00:51:00,
2013-08-23 20:56:00,66.8,55.0,29.94,North,-999,-999.0,-999.0,58,-99.99,,,-99.99,Homeseer,2013-08-24 00:56:00,
2013-08-23 21:01:00,66.7,55.0,29.94,North,-999,-999.0,-999.0,58,-99.99,,,-99.99,Homeseer,2013-08-24 01:01:00,
2013-08-23 21:06:00,66.6,55.2,29.95,North,-999,-999.0,-999.0,59,-99.99,,,-99.99,Homeseer,2013-08-24 01:06:00,
2013-08-23 21:11:00,66.4,55.0,29.95,North,-999,-999.0,-999.0,59,-99.99,,,-99.99,Homeseer,2013-08-24 01:11:00,
2013-08-23 21:16:00,66.1,55.1,29.96,North,-999,-999.0,-999.0,60,-99.99,,,-99.99,Homeseer,2013-08-24 01:16:00,
2013-08-23 21:21:00,66.0,55.0,29.96,North,-999,-999.0,-999.0,60,-99.99,,,-99.99,Homeseer,2013-08-24 01:21:00,
2013-08-23 21:26:00,65.8,55.2,29.96,North,-999,-999.0,-999.0,61,-99.99,,,-99.99,Homeseer,2013-08-24 01:26:00,
2013-08-23 21:31:00,65.7,55.4,29.97,North,-999,-999.0,-999.0,62,-99.99,,,-99.99,Homeseer,2013-08-24 01:31:00,
2013-08-23 21:36:00,65.4,55.1,29.97,North,-999,-999.0,-999.0,62,-99.99,,,-99.99,Homeseer,2013-08-24 01:36:00,
2013-08-23 21:41:00,65.3,55.0,29.97,North,-999,-999.0,-999.0,62,-99.99,,,-99.99,Homeseer,2013-08-24 01:41:00,
2013-08-23 21:46:00,65.1,55.2,29.97,North,-999,-999.0,-999.0,63,-99.99,,,-99.99,Homeseer,2013-08-24 01:46:00,
2013-08-23 21:51:00,64.9,55.3,29.97,North,-999,-999.0,-999.0,64,-99.99,,,-99.99,Homeseer,2013-08-24 01:51:00,
2013-08-23 21:56:00,64.8,55.6,29.97,North,-999,-999.0,-999.0,65,-99.99,,,-99.99,Homeseer,2013-08-24 01:56:00,
2013-08-23 22:01:00,64.7,55.5,29.98,North,-999,-999.0,-999.0,65,-99.99,,,-99.99,Homeseer,2013-08-24 02:01:00,
2013-08-23 22:06:00,64.6,55.7,29.98,North,-999,-999.0,-999.0,66,-99.99,,,-99.99,Homeseer,2013-08-24 02:06:00,
2013-08-23 22:11:00,64.3,55.4,29.99,North,-999,-999.0,-999.0,66,-99.99,,,-99.99,Homeseer,2013-08-24 02:11:00,
2013-08-23 22:16:00,64.1,55.5,29.98,North,-999,-999.0,-999.0,67,-99.99,,,-99.99,Homeseer,2013-08-24 02:16:00,
2013-08-23 22:21:00,63.9,55.6,29.99,North,-999,-999.0,-999.0,68,-99.99,,,-99.99,Homeseer,2013-08-24 02:21:00,
2013-08-23 22:26:00,63.6,55.1,29.99,North,-999,-999.0,-999.0,67,-99.99,,,-99.99,Homeseer,2013-08-24 02:26:00,
2013-08-23 22:31:00,63.5,55.3,30.00,North,-999,-999.0,-999.0,68,-99.99,,,-99.99,Homeseer,2013-08-24 02:31:00,
2013-08-23 22:36:00,63.3,55.1,30.01,North,-999,-999.0,-999.0,68,-99.99,,,-99.99,Homeseer,2013-08-24 02:36:00,
2013-08-23 22:41:00,63.2,55.0,30.00,North,-999,-999.0,-999.0,68,-99.99,,,-99.99,Homeseer,2013-08-24 02:41:00,
2013-08-23 22:46:00,63.1,54.9,30.00,North,-999,-999.0,-999.0,68,-99.99,,,-99.99,Homeseer,2013-08-24 02:46:00,
2013-08-23 22:51:00,62.9,55.0,30.01,North,-999,-999.0,-999.0,69,-99.99,,,-99.99,Homeseer,2013-08-24 02:51:00,
2013-08-23 22:56:00,62.8,55.2,30.01,North,-999,-999.0,-999.0,70,-99.99,,,-99.99,Homeseer,2013-08-24 02:56:00,
2013-08-23 23:01:00,62.3,55.0,30.02,North,-999,-999.0,-999.0,71,-99.99,,,-99.99,Homeseer,2013-08-24 03:01:00,
2013-08-23 23:06:00,62.3,55.0,30.02,North,-999,-999.0,-999.0,71,-99.99,,,-99.99,Homeseer,2013-08-24 03:06:00,
2013-08-23 23:11:00,62.0,55.0,30.02,North,-999,-999.0,-999.0,72,-99.99,,,-99.99,Homeseer,2013-08-24 03:11:00,
2013-08-23 23:16:00,61.7,54.4,30.03,North,-999,-999.0,-999.0,71,-99.99,,,-99.99,Homeseer,2013-08-24 03:16:00,
2013-08-23 23:21:00,61.6,54.6,30.03,North,-999,-999.0,-999.0,72,-99.99,,,-99.99,Homeseer,2013-08-24 03:21:00,
2013-08-23 23:26:00,61.4,54.2,30.03,North,-999,-999.0,-999.0,71,-99.99,,,-99.99,Homeseer,2013-08-24 03:26:00,
2013-08-23 23:31:00,61.3,54.1,30.03,North,-999,-999.0,-999.0,71,-99.99,,,-99.99,Homeseer,2013-08-24 03:31:00,
2013-08-23 23:36:00,61.1,53.9,30.03,North,-999,-999.0,-999.0,71,-99.99,,,-99.99,Homeseer,2013-08-24 03:36:00,
2013-08-23 23:41:00,61.0,53.8,30.03,North,-999,-999.0,-999.0,71,-99.99,,,-99.99,Homeseer,2013-08-24 03:41:00,
2013-08-23 23:46:00,60.8,53.6,30.04,North,-999,-999.0,-999.0,71,-99.99,,,-99.99,Homeseer,2013-08-24 03:46:00,
2013-08-23 23:51:00,60.6,53.4,30.04,North,-999,-999.0,-999.0,71,-99.99,,,-99.99,Homeseer,2013-08-24 03:51:00,
2013-08-23 23:56:00,60.4,53.5,30.04,North,-999,-999.0,-999.0,72,-99.99,,,-99.99,Homeseer,2013-08-24 03:56:00,